Date,TemperatureHighF,TemperatureAvgF,TemperatureLowF,DewpointHighF,DewpointAvgF,DewpointLowF,HumidityHigh,HumidityAvg,HumidityLow,PressureMaxIn,PressureMinIn,WindSpeedMaxMPH,WindSpeedAvgMPH,GustSpeedMaxMPH,PrecipitationSumIn
2013-2-1,31,25,18,20,12,5,66,56,43,29.98,29.41,25,17,30,0.00
2013-2-2,26,20,14,16,9,2,70,60,51,30.15,29.98,13,4,15,0.00
2013-2-3,28,25,22,20,17,14,87,72,60,29.99,29.63,5,1,9,0.00
2013-2-4,28,24,19,18,12,4,80,61,40,29.81,29.60,30,18,33,0.00
2013-2-5,25,19,14,11,5,1,73,56,41,29.98,29.81,19,4,22,0.00
2013-2-6,35,25,18,27,15,0,81,68,39,30.23,29.86,23,7,24,0.00
2013-2-7,24,16,10,2,-3,-8,54,44,25,30.51,30.23,12,4,18,0.00
2013-2-8,16,13,10,14,9,-4,92,84,44,30.50,29.80,5,2,18,0.00
2013-2-9,20,15,11,17,12,9,93,89,71,30.00,29.58,20,9,31,0.00
2013-2-10,34,24,16,17,9,3,76,53,31,30.30,30.04,18,8,0,0.00
2013-2-11,41,28,18,40,24,10,98,87,70,30.29,29.52,8,1,0,0.51
2013-2-12,41,35,30,33,31,30,98,85,66,29.71,29.47,20,7,21,0.00
2013-2-13,40,35,31,31,28,25,87,75,61,29.76,29.68,9,4,11,0.00
2013-2-14,41,33,28,26,24,20,80,68,43,29.94,29.65,13,2,15,0.00
2013-2-15,44,36,26,38,32,22,95,86,77,29.94,29.85,8,2,12,0.00
2013-2-16,36,33,28,34,30,18,96,91,65,29.88,29.69,10,2,14,0.01
2013-2-17,28,23,19,20,15,7,94,72,51,29.71,29.13,37,21,44,0.01
2013-2-18,31,24,16,14,9,4,70,54,38,30.00,29.42,37,26,45,0.00
2013-2-19,43,32,22,43,20,2,100,64,40,30.05,29.50,18,4,21,0.57
2013-2-20,43,34,29,43,28,20,98,80,63,29.59,29.38,22,14,26,0.05
2013-2-21,30,26,22,23,18,11,78,70,59,30.08,29.59,20,14,25,0.00
2013-2-22,39,32,28,26,23,21,86,70,49,30.33,30.08,8,2,13,0.00
2013-2-23,37,33,28,33,29,24,95,87,76,30.30,29.96,4,1,8,0.03
2013-2-24,33,31,30,32,31,29,97,97,96,29.96,29.72,1,0,4,0.07
2013-2-25,39,31,26,33,29,25,97,92,76,30.19,29.85,4,1,0,0.66
2013-2-26,42,35,30,33,30,29,97,86,65,30.31,30.19,5,1,0,0.08
2013-2-27,38,33,31,35,32,29,98,94,87,30.19,29.59,6,2,11,0.17
2013-2-28,41,36,32,40,35,31,99,98,97,29.58,29.48,5,2,13,0.75